Temperature
16 16 17 17 14 13 14 15 17 18 18 20 20 20 18 18 18 18 17 17 17 17 17 17 17 17 17 17 17 17 17 17 16 16 16 16 16 16 16 15 15 15 15 15 15 15 15 15 15
16 16 16 16 13 14 14 15 17 18 19 20 20 19 18 17 17 17 17 17 17 17 17 17 17 17 16 16 17 17 17 16 16 16 16 16 16 15 15 15 15 15 15 15 15 15 15 15 15
15 16 16 12 13 14 15 16 16 18 19 19 19 18 17 17 17 16 17 17 17 17 17 17 17 17 16 16 16 16 16 16 16 16 16 16 16 15 15 15 15 15 15 15 15 15 15 15 14
15 15 15 12 14 14 15 16 16 17 18 19 18 17 17 16 16 17 17 17 17 17 17 17 17 17 16 16 16 16 16 16 16 16 16 16 15 16 15 15 15 15 15 15 15 15 15 14 14
14 14 12 12 13 14 15 16 17 17 17 17 17 16 16 16 16 17 17 16 17 17 16 16 16 16 16 16 16 16 16 16 16 16 16 15 15 15 15 15 15 15 15 15 15 15 14 14 14
14 12 11 12 13 14 15 17 16 16 16 17 16 15 15 16 16 16 16 16 16 16 16 16 16 16 16 16 16 16 16 16 16 15 15 15 15 15 15 15 15 15 15 15 15 14 14 14 14
12 11 12 12 13 14 15 16 16 15 15 16 16 15 15 15 15 15 15 16 16 16 16 16 16 16 16 16 16 15 15 15 15 15 15 15 15 15 15 15 15 15 15 15 14 14 14 14 14
13 10 12 12 13 14 15 16 16 16 15 16 16 15 14 14 15 15 15 15 15 15 15 15 15 15 15 15 15 15 15 15 15 14 15 15 15 15 15 15 15 15 15 14 14 14 14 13 13
12 10 11 12 13 13 14 15 15 15 16 16 16 15 15 15 15 15 15 14 15 15 15 15 15 15 15 15 15 15 15 14 14 14 14 14 14 14 15 15 15 14 14 14 14 14 13 13 13
11 9 11 12 13 13 14 14 14 14 14 14 15 15 15 14 14 14 14 14 14 14 14 15 15 15 15 14 14 14 14 14 14 14 14 14 14 14 14 14 14 14 14 14 14 13 13 13 13
10 10 11 12 13 13 13 13 14 13 12 14 14 14 14 14 14 14 14 14 14 14 14 14 14 14 14 14 14 14 14 14 14 14 14 14 14 14 14 14 14 14 14 14 13 13 13 13 12
10 10 11 11 12 12 12 13 13 13 13 14 14 14 14 14 14 14 13 13 13 13 14 14 14 14 14 14 14 14 14 14 14 13 14 14 14 14 14 14 14 13 13 13 13 13 13 12 12
9 10 11 11 11 11 12 12 12 12 13 13 13 13 13 13 13 13 13 13 13 13 13 13 14 14 14 14 14 14 13 13 13 13 13 13 13 13 13 13 13 13 13 13 13 13 12 12 12
10 10 10 10 11 11 11 11 11 11 13 13 13 13 13 13 13 13 13 13 13 13 13 13 13 13 13 13 13 13 13 13 13 13 13 13 13 13 13 13 13 13 13 13 13 12 12 12 12
10 9 9 10 10 11 11 10 10 11 12 12 12 12 12 12 12 12 12 12 13 13 13 13 13 13 13 13 13 13 13 13 13 13 13 13 13 13 13 13 13 13 13 12 12 12 12 12 11
9 8 8 9 10 10 10 9 10 11 11 11 11 11 12 12 12 12 12 12 12 12 13 13 12 12 13 13 13 13 13 13 13 13 13 13 13 13 13 13 13 13 12 12 12 12 12 11 11
7 7 7 9 9 9 9 8 9 10 10 10 10 11 11 11 11 12 12 12 12 12 12 12 12 12 12 12 12 12 12 12 12 12 12 13 13 13 13 13 13 12 12 12 12 11 11 11 11
7 7 7 8 9 8 8 8 8 9 9 9 10 10 10 11 11 11 11 11 12 12 12 12 12 12 12 12 12 12 12 12 12 12 12 12 12 13 12 12 12 12 12 11 11 11 11 11 11
7 7 7 7 8 8 7 7 8 8 8 8 9 9 10 10 10 11 11 11 11 11 11 11 11 12 11 11 11 12 12 12 12 12 12 12 12 12 12 12 12 12 12 11 11 11 11 10 10
7 7 7 7 8 8 7 7 7 8 8 8 8 8 9 9 10 10 10 10 10 10 11 11 11 11 11 11 11 11 11 11 11 11 11 12 12 12 12 12 12 12 11 11 11 11 11 10 10
6 6 6 7 7 7 7 7 7 7 8 8 8 8 8 9 9 9 9 10 10 10 10 10 10 11 11 11 11 11 11 11 11 11 11 11 11 11 11 11 11 11 11 11 11 11 10 10 10
6 7 7 7 6 5 6 6 7 7 7 7 7 7 8 8 8 9 9 9 9 9 10 10 10 10 10 10 10 10 10 10 10 11 11 11 11 11 11 11 11 11 11 11 11 10 10 10 9
6 7 7 7 6 5 6 5 6 6 7 6 6 7 7 7 8 8 8 8 8 9 9 9 9 9 9 10 10 10 10 10 10 10 10 10 10 10 11 11 11 11 11 10 10 10 10 9 9
6 6 6 5 5 5 5 5 5 5 6 6 6 6 7 7 7 7 7 7 8 8 8 9 9 9 9 9 9 9 10 10 10 10 10 10 10 10 10 10 10 10 10 10 10 10 9 9 9
5 5 4 5 4 5 5 5 5 5 5 6 6 6 6 6 6 6 7 7 7 7 8 8 8 8 8 8 9 9 9 9 9 9 9 9 9 10 10 10 10 10 10 9 9 9 9 9 9
5 5 4 5 5 4 5 5 5 5 5 6 6 5 5 5 5 6 6 6 6 6 7 7 7 7 7 8 8 8 8 8 9 9 9 9 9 9 9 9 9 9 9 9 9 9 9 8 8
5 4 4 3 3 3 4 4 4 5 4 4 5 5 5 5 5 5 5 5 6 6 6 6 6 7 7 7 7 8 8 8 8 8 8 8 8 9 9 9 9 9 9 8 8 8 8 8 8
5 4 3 3 3 4 4 4 4 4 4 3 3 4 4 4 4 4 5 5 5 5 5 6 6 6 6 7 7 7 7 7 7 8 8 8 8 8 8 8 8 8 8 8 8 8 8 7 7
4 4 3 2 2 3 4 5 4 4 3 3 3 3 3 3 3 4 4 4 4 5 5 5 5 5 6 6 6 7 7 7 7 7 7 7 8 8 8 8 8 8 8 8 8 8 7 7 7
4 3 2 3 2 2 2 4 4 3 3 3 3 3 3 3 3 3 3 4 4 4 4 4 5 5 5 6 6 6 6 6 6 6 7 7 7 7 7 7 7 7 7 7 7 7 7 7 7
Wind_Speed
11 9 2 4 5 3 3 4 3 2 1 1 1 6 7 5 3 4 2 7 8 9 11 14 15 15 15 16 15 15 14 14 15 15 15 15 15 15 15 15 15 15 15 15 15 15 15 15 16
7 3 4 4 4 2 4 4 4 3 2 0 3 5 6 4 3 5 3 6 9 9 11 13 15 15 15 15 15 15 15 14 14 14 14 14 14 14 15 14 14 14 14 14 14 14 14 14 15
3 1 3 3 3 6 5 4 6 3 2 2 3 5 5 4 4 3 4 8 9 8 11 12 15 15 16 16 15 15 15 14 14 14 14 13 14 14 14 14 14 14 14 14 13 13 13 14 14
2 3 3 2 5 5 5 4 3 1 3 3 3 5 3 2 2 4 8 9 10 7 10 13 15 15 15 15 15 14 14 14 14 14 13 13 13 13 13 13 13 13 13 13 12 12 13 13 13
3 3 2 3 6 4 3 4 1 1 1 2 3 4 2 3 5 9 9 9 9 7 9 13 15 15 14 13 14 14 14 14 13 13 13 13 13 13 13 12 12 12 12 12 11 12 12 12 13
3 3 3 6 6 3 3 3 1 1 1 1 4 4 2 2 6 7 7 8 9 8 8 10 13 14 14 13 12 13 13 14 13 13 13 13 13 12 12 12 12 11 11 11 10 11 11 12 13
3 3 5 5 3 3 3 2 1 1 0 1 3 4 2 2 3 6 7 8 7 8 7 7 10 11 13 13 12 12 12 13 13 13 13 13 13 12 11 11 11 11 11 10 10 10 10 11 12
3 3 3 4 4 3 3 1 0 1 1 1 3 6 4 3 3 6 7 7 7 6 6 6 7 9 10 11 12 11 11 12 13 13 13 13 12 12 11 11 11 10 10 10 10 9 9 10 11
3 2 5 5 4 3 2 2 3 2 2 2 1 3 5 8 7 8 7 6 5 5 4 5 5 6 8 9 10 11 10 11 12 12 12 11 10 10 10 10 10 10 10 10 9 9 9 9 10
3 4 6 3 3 2 2 2 2 3 3 2 3 3 5 8 9 9 7 6 5 5 4 4 5 5 7 7 7 8 8 9 9 10 11 9 9 9 9 10 10 10 10 9 9 8 8 7 8
3 4 3 2 2 1 2 3 2 2 0 3 4 4 5 7 7 8 7 6 6 5 4 3 3 4 5 5 6 6 6 7 7 8 9 9 8 8 8 8 8 9 8 7 7 6 6 6 7
2 1 1 2 2 2 2 2 3 0 4 3 4 7 7 7 7 7 7 5 5 5 3 3 3 3 4 4 4 5 6 6 6 8 10 9 7 6 7 6 7 7 7 6 5 5 5 6 6
1 1 2 3 2 2 1 1 1 3 3 1 2 5 6 7 5 4 5 4 4 4 3 3 3 2 3 4 3 3 4 6 7 7 9 10 7 6 6 6 7 7 7 6 5 5 5 5 5
1 0 2 3 2 2 0 3 1 3 1 2 3 3 4 5 4 3 3 4 3 4 4 3 3 2 3 3 3 3 4 5 7 7 8 10 9 8 7 5 6 6 7 8 7 6 5 4 5
1 2 4 3 2 1 2 2 3 3 2 2 2 1 1 2 3 4 4 4 5 4 4 3 4 3 3 3 4 3 4 5 5 6 7 9 9 10 8 6 5 6 8 8 6 6 5 4 4
2 2 1 3 1 1 3 3 4 1 2 2 2 1 1 1 1 2 3 3 3 3 4 4 4 3 3 3 4 3 4 4 4 6 7 8 9 10 9 6 5 8 8 7 5 4 4 3 3
3 1 2 3 1 1 2 4 4 2 1 2 1 2 2 1 1 0 1 2 2 3 4 3 3 3 4 3 3 3 4 4 4 5 6 8 9 10 9 6 6 8 7 5 5 3 4 4 3
3 2 1 2 2 2 1 4 6 4 1 2 2 1 1 1 2 1 1 1 1 2 3 3 2 3 3 2 1 2 2 3 3 4 5 7 8 9 8 7 7 8 5 4 4 4 3 3 3
3 3 2 4 2 1 3 5 7 5 2 2 2 2 1 2 3 1 1 0 0 1 1 2 3 2 2 2 2 3 3 3 3 3 5 7 8 9 8 6 7 6 6 6 6 4 4 3 3
2 2 2 3 2 1 2 6 6 4 3 3 3 2 2 2 2 2 2 2 1 1 1 1 3 3 3 3 2 2 3 3 3 3 3 6 7 8 7 7 6 7 6 7 6 5 3 2 3
1 3 2 2 4 2 2 5 4 2 1 1 1 1 1 1 2 3 3 3 2 2 2 2 3 2 2 2 1 0 0 0 1 2 2 4 7 7 7 8 7 6 7 7 7 7 6 4 3
3 3 2 1 1 2 1 3 6 2 2 1 1 1 2 2 2 3 3 4 3 3 3 2 2 2 2 2 2 2 2 3 3 3 4 4 6 7 8 8 7 7 6 7 8 7 5 6 4
4 2 1 1 1 2 1 2 6 1 2 3 2 2 2 2 2 3 4 4 4 3 3 2 2 3 2 2 3 3 3 3 2 3 4 4 4 6 7 8 7 7 6 7 7 7 6 5 5
1 2 3 3 2 1 3 4 5 3 4 3 2 2 3 3 3 4 5 5 4 3 2 2 2 3 3 3 3 4 5 4 3 4 5 5 4 4 5 7 7 7 6 7 7 7 8 6 5
4 4 3 3 1 4 2 3 6 3 2 3 2 2 3 4 3 4 5 5 5 4 3 3 3 4 4 3 3 4 5 5 6 6 6 5 5 4 6 6 7 6 6 7 6 6 7 7 7
1 4 4 3 3 3 2 5 5 2 1 0 0 1 3 4 4 5 5 5 5 5 4 4 4 4 4 4 4 5 5 5 5 6 6 6 6 6 7 7 7 7 7 6 6 5 5 6 7
3 2 3 3 0 2 4 5 5 1 2 2 2 3 4 5 5 6 6 5 5 5 5 5 5 5 5 5 5 5 5 5 5 5 6 5 5 4 6 7 7 6 7 6 6 5 5 5 6
3 4 4 3 2 3 5 5 5 5 4 3 4 5 5 6 6 6 6 6 5 5 5 5 5 5 5 5 5 5 5 5 5 5 6 5 5 4 5 7 7 6 6 6 6 5 5 5 5
2 2 3 2 3 3 3 6 4 6 4 2 4 5 5 6 6 6 6 6 6 5 5 5 5 5 5 5 5 5 5 5 4 4 5 5 4 5 6 6 6 7 6 6 6 6 6 7 5
3 4 4 3 3 3 3 7 3 2 2 1 3 5 5 5 6 6 6 6 5 5 5 5 6 5 6 6 6 5 5 4 4 5 5 4 4 4 5 5 5 6 6 6 6 6 6 7 7
Wind_Direction
325 330 32 56 64 64 230 251 244 268 301 303 86 101 111 108 127 146 121 126 125 140 146 145 144 142 140 136 132 129 124 121 118 116 115 115 114 112 111 108 106 104 102 103 103 101 98 97 96
327 343 54 67 111 167 248 245 233 241 220 149 61 81 83 76 79 106 112 138 136 140 142 144 142 140 140 138 136 132 129 125 123 121 119 117 117 116 114 112 109 106 103 103 103 102 100 98 98
324 61 88 96 152 189 211 230 217 264 307 48 52 61 98 110 109 125 157 144 133 134 139 139 140 138 138 138 138 135 132 130 127 125 123 121 121 120 118 115 112 110 106 104 103 103 102 101 100
45 59 67 119 207 219 209 229 221 254 356 26 99 74 74 69 141 141 138 133 130 128 134 140 138 137 136 139 139 138 136 135 132 130 128 127 124 122 121 119 116 113 110 108 105 104 105 104 102
67 97 118 208 227 238 244 265 238 139 12 11 85 104 66 6 98 118 125 127 127 126 130 140 142 140 136 136 142 142 140 140 138 136 134 131 128 124 124 124 122 119 115 112 110 108 108 104 103
68 95 154 210 225 243 264 271 347 43 16 28 88 101 96 72 94 116 119 120 128 130 130 140 143 144 141 139 139 144 145 144 143 141 139 136 133 129 129 130 129 125 122 119 116 113 112 106 105
126 137 185 196 209 231 257 260 137 162 79 271 132 110 113 56 93 116 115 115 122 123 123 132 144 148 148 145 145 144 149 151 148 146 143 141 139 137 134 136 136 133 130 126 123 119 113 110 107
137 128 191 208 200 224 279 297 12 119 220 300 110 128 159 183 125 106 105 110 114 119 122 127 138 144 148 150 150 148 148 153 152 148 144 146 146 143 140 138 140 139 138 134 131 127 120 111 106
104 131 208 209 194 221 307 9 336 339 88 28 58 139 158 147 125 106 101 103 113 118 130 137 135 141 143 148 155 153 151 151 153 151 146 144 144 145 144 144 144 143 142 141 138 133 125 112 106
111 185 215 221 208 217 305 11 336 17 29 34 44 52 114 129 128 126 132 139 144 151 151 151 151 150 149 151 154 159 155 152 155 158 153 150 149 153 153 151 150 149 145 144 143 136 123 115 111
146 191 223 273 275 274 326 340 344 109 110 174 149 143 133 131 136 142 152 156 163 166 161 156 153 153 152 147 154 159 159 157 161 163 163 156 151 152 153 150 151 151 149 144 140 128 124 125 120
129 256 246 293 323 330 308 326 359 201 221 219 170 153 145 150 158 160 164 167 159 154 162 163 155 159 154 148 158 166 165 165 167 168 162 156 151 154 159 160 162 159 156 147 140 134 134 133 131
164 256 310 315 339 314 350 291 303 291 250 249 136 127 143 149 157 163 162 160 157 161 169 172 161 165 161 149 155 165 167 170 173 170 169 165 160 164 166 168 168 168 162 155 148 145 140 134 131
188 15 325 313 316 306 171 302 332 271 158 80 115 132 152 154 152 146 146 158 168 175 179 173 168 173 167 165 167 173 175 177 174 176 180 174 172 168 167 168 167 169 169 165 158 154 146 139 135
68 26 344 307 269 225 95 340 246 246 109 112 140 131 113 145 142 160 176 179 184 186 185 185 185 174 178 180 171 165 170 174 173 177 183 180 177 172 165 166 172 175 169 160 151 147 139 133 131
61 59 321 301 307 282 117 243 266 281 109 157 175 169 147 202 179 188 179 184 182 179 183 190 195 188 193 197 182 167 166 165 171 176 179 178 176 172 165 166 175 172 162 154 148 151 144 143 139
50 111 246 298 336 20 131 238 278 339 105 181 209 196 183 247 345 298 171 185 188 182 185 191 191 192 196 199 191 174 166 166 168 170 174 180 174 171 165 163 167 166 157 155 162 160 154 153 149
180 180 244 262 318 36 231 259 286 313 239 215 230 246 205 210 264 268 230 205 211 205 188 185 194 199 195 182 177 170 158 166 166 171 179 180 176 172 166 160 163 164 157 163 162 162 152 154 155
165 170 236 268 298 349 246 263 279 289 262 229 247 258 254 251 279 317 347 350 26 331 241 192 196 207 189 181 189 197 197 194 190 184 184 179 176 175 167 167 165 166 173 173 164 157 153 154 138
161 174 262 298 338 340 291 284 276 271 249 213 200 229 261 306 344 351 358 358 354 287 307 247 214 212 205 197 206 214 211 203 198 189 188 183 176 174 174 168 174 175 174 170 167 154 158 166 161
215 190 214 264 332 350 343 309 283 297 339 325 279 251 258 273 312 321 329 320 313 310 302 295 268 237 225 199 165 144 229 246 197 203 208 202 185 179 178 178 174 176 178 181 180 173 167 174 196
223 221 215 213 17 295 152 270 276 261 293 305 290 320 313 323 337 335 329 317 297 281 281 295 302 285 251 196 179 186 213 227 225 209 212 212 192 183 182 183 178 180 184 184 186 179 177 170 186
215 232 215 194 179 307 278 205 276 224 241 255 265 284 318 327 330 320 313 298 294 287 282 286 297 305 286 228 204 205 228 237 233 210 205 210 201 189 186 186 183 185 188 187 185 182 178 182 185
186 69 51 51 81 270 233 191 266 238 229 245 272 313 320 323 320 313 309 309 307 304 295 301 298 289 288 260 229 219 224 231 224 223 214 212 213 204 196 191 190 192 189 188 187 188 186 189 189
74 96 49 9 354 248 243 216 251 247 235 207 223 284 307 308 303 310 322 319 312 307 312 302 281 278 275 265 251 237 227 219 219 223 215 215 216 216 208 200 197 196 194 191 189 189 194 192 191
138 134 150 195 227 278 285 236 254 257 290 197 264 314 321 321 318 316 317 304 300 300 303 312 289 276 270 263 259 252 232 223 226 228 223 216 220 219 204 200 197 194 193 194 190 195 200 196 194
132 148 158 137 189 270 268 279 289 247 342 346 346 341 325 320 317 318 322 317 306 301 300 294 288 286 275 264 260 259 240 231 232 239 227 219 221 215 201 197 197 193 191 191 187 193 197 193 194
131 138 102 121 166 262 283 266 241 239 262 303 325 327 319 320 322 326 326 321 307 298 297 297 285 275 281 272 262 264 246 240 236 238 228 219 215 203 199 197 195 192 192 190 188 189 190 188 194
113 116 123 139 168 178 257 269 232 212 218 250 291 307 312 314 316 319 321 318 313 311 305 305 302 295 288 284 272 262 249 242 240 243 235 219 209 199 199 196 190 188 189 190 191 195 189 188 187
169 174 158 164 226 195 210 270 276 220 240 245 287 303 313 318 320 322 323 327 330 323 316 312 306 298 290 287 285 271 254 239 237 249 240 214 201 197 196 190 187 189 190 190 189 192 189 187 187
Height
1514 1515 1516 1518 1521 1530 1531 1523 1516 1512 1510 1509 1508 1508 1511 1515 1519 1526 1522 1521 1523 1525 1527 1529 1530 1532 1533 1534 1535 1536 1537 1538 1539 1539 1540 1541 1541 1542 1543 1543 1544 1544 1544 1545 1545 1545 1546 1546 1546
1513 1515 1517 1517 1526 1535 1529 1519 1514 1510 1509 1508 1508 1509 1511 1515 1517 1519 1519 1521 1523 1525 1526 1528 1530 1532 1533 1534 1535 1536 1537 1538 1539 1540 1541 1541 1542 1543 1543 1544 1544 1545 1545 1546 1546 1546 1547 1547 1547
1513 1514 1516 1519 1526 1528 1522 1514 1511 1508 1508 1508 1509 1511 1513 1516 1517 1518 1519 1521 1523 1525 1526 1528 1530 1532 1533 1534 1535 1537 1538 1539 1540 1540 1541 1542 1542 1543 1544 1545 1545 1545 1546 1546 1547 1547 1547 1548 1548
1512 1515 1516 1522 1522 1518 1514 1510 1508 1508 1508 1508 1509 1513 1515 1518 1518 1518 1519 1521 1523 1524 1526 1528 1530 1531 1533 1534 1535 1537 1538 1539 1540 1541 1541 1542 1543 1543 1544 1545 1545 1546 1547 1547 1548 1548 1548 1549 1549
1511 1513 1519 1522 1518 1514 1510 1508 1508 1508 1509 1510 1510 1513 1516 1518 1518 1518 1519 1521 1522 1524 1526 1528 1529 1531 1532 1534 1535 1537 1538 1539 1540 1541 1542 1543 1543 1544 1544 1545 1546 1546 1547 1548 1548 1549 1549 1549 1549
1510 1511 1521 1522 1516 1512 1510 1509 1509 1509 1510 1510 1511 1513 1516 1518 1517 1518 1519 1520 1522 1524 1526 1528 1529 1531 1532 1534 1535 1536 1538 1539 1540 1541 1542 1543 1543 1544 1545 1545 1546 1547 1547 1548 1549 1549 1550 1550 1550
1510 1513 1517 1516 1515 1513 1510 1509 1509 1509 1510 1510 1511 1513 1516 1517 1518 1519 1520 1521 1523 1524 1525 1527 1529 1530 1532 1533 1534 1536 1537 1539 1540 1541 1542 1543 1544 1544 1545 1545 1546 1547 1547 1548 1549 1550 1550 1550 1551
1508 1512 1514 1515 1514 1513 1510 1509 1509 1509 1510 1511 1511 1512 1515 1516 1518 1519 1520 1521 1523 1524 1525 1527 1528 1530 1531 1532 1534 1535 1537 1538 1540 1540 1541 1542 1543 1544 1545 1545 1546 1547 1548 1548 1549 1550 1550 1550 1551
1508 1515 1515 1513 1512 1511 1509 1509 1509 1509 1509 1510 1510 1511 1513 1515 1517 1518 1520 1521 1522 1523 1525 1526 1527 1528 1530 1531 1533 1535 1536 1538 1539 1540 1541 1542 1543 1543 1544 1545 1546 1547 1548 1548 1549 1550 1550 1550 1551
1507 1514 1511 1509 1509 1509 1508 1509 1509 1509 1508 1509 1510 1511 1513 1514 1515 1516 1518 1519 1520 1521 1523 1525 1526 1527 1528 1530 1532 1533 1535 1536 1538 1539 1540 1541 1542 1543 1544 1545 1546 1547 1547 1548 1549 1549 1550 1550 1550
1507 1510 1509 1508 1507 1507 1508 1508 1509 1509 1510 1509 1509 1510 1511 1513 1514 1515 1517 1518 1519 1520 1521 1523 1524 1525 1526 1528 1530 1531 1533 1535 1536 1537 1539 1540 1541 1542 1543 1544 1545 1546 1547 1547 1548 1549 1549 1549 1550
1508 1508 1508 1507 1507 1507 1508 1508 1508 1508 1509 1509 1509 1509 1510 1511 1512 1514 1515 1517 1518 1519 1520 1521 1523 1524 1525 1526 1528 1529 1531 1532 1534 1535 1537 1538 1539 1540 1541 1543 1544 1545 1546 1546 1547 1548 1548 1549 1550
1508 1508 1507 1507 1507 1507 1507 1508 1508 1507 1507 1507 1508 1508 1509 1510 1511 1513 1515 1516 1517 1518 1519 1520 1521 1522 1523 1524 1526 1527 1529 1530 1532 1533 1535 1536 1537 1538 1540 1541 1542 1544 1544 1545 1546 1547 1547 1548 1549
1507 1507 1507 1507 1506 1506 1506 1506 1507 1506 1506 1506 1506 1507 1508 1509 1510 1511 1513 1514 1515 1516 1517 1518 1519 1520 1521 1522 1524 1525 1526 1528 1529 1531 1532 1534 1535 1537 1538 1539 1541 1542 1543 1544 1545 1545 1546 1547 1548
1507 1508 1508 1506 1505 1506 1505 1507 1507 1505 1505 1505 1506 1506 1506 1508 1509 1510 1511 1512 1513 1514 1515 1516 1517 1518 1519 1520 1521 1523 1524 1525 1527 1528 1530 1531 1533 1534 1536 1537 1538 1539 1541 1542 1543 1544 1545 1545 1546
1508 1511 1513 1507 1505 1505 1509 1511 1505 1505 1504 1504 1505 1505 1506 1506 1507 1508 1509 1510 1511 1512 1513 1514 1515 1515 1516 1517 1519 1520 1521 1523 1524 1525 1527 1528 1530 1532 1533 1534 1536 1537 1538 1539 1540 1541 1542 1543 1544
1514 1517 1515 1510 1506 1506 1508 1510 1505 1505 1504 1504 1504 1504 1504 1505 1505 1506 1507 1508 1509 1510 1511 1511 1512 1513 1513 1514 1516 1517 1518 1520 1521 1522 1523 1525 1527 1528 1530 1531 1533 1534 1535 1537 1538 1539 1540 1540 1541
1516 1517 1515 1513 1508 1508 1509 1509 1505 1504 1504 1503 1503 1503 1503 1503 1504 1504 1505 1506 1507 1508 1509 1509 1509 1510 1511 1512 1513 1514 1515 1516 1517 1519 1520 1521 1523 1525 1527 1528 1530 1531 1532 1533 1535 1536 1537 1538 1539
1511 1514 1515 1512 1509 1510 1509 1508 1505 1502 1502 1502 1502 1501 1501 1502 1503 1503 1503 1504 1505 1505 1506 1506 1506 1507 1508 1508 1509 1510 1510 1512 1514 1515 1516 1518 1519 1521 1523 1524 1526 1528 1528 1530 1531 1533 1534 1535 1536
1511 1513 1514 1511 1508 1510 1510 1508 1503 1501 1501 1501 1501 1500 1500 1500 1500 1500 1501 1501 1501 1502 1502 1503 1503 1504 1504 1505 1506 1507 1508 1508 1510 1511 1512 1513 1515 1517 1519 1520 1522 1524 1525 1526 1527 1529 1530 1531 1532
1512 1514 1513 1513 1511 1510 1511 1509 1503 1500 1499 1499 1499 1499 1499 1499 1498 1498 1498 1498 1498 1498 1499 1499 1500 1501 1501 1502 1503 1504 1505 1505 1506 1507 1508 1509 1511 1513 1514 1516 1517 1519 1521 1521 1522 1524 1526 1526 1528
1513 1510 1510 1511 1515 1517 1514 1517 1505 1502 1501 1499 1499 1498 1498 1498 1498 1497 1497 1496 1496 1496 1496 1497 1497 1498 1498 1498 1499 1499 1500 1500 1500 1502 1504 1505 1507 1508 1510 1512 1513 1515 1516 1517 1518 1520 1522 1523 1524
1510 1508 1509 1511 1515 1519 1516 1519 1508 1502 1501 1499 1498 1498 1498 1497 1496 1496 1495 1494 1493 1493 1493 1493 1494 1494 1494 1495 1495 1496 1496 1497 1498 1499 1500 1501 1502 1504 1505 1507 1509 1510 1512 1513 1514 1516 1517 1519 1520
1507 1509 1511 1515 1518 1521 1515 1518 1511 1504 1499 1498 1498 1497 1497 1496 1495 1494 1493 1492 1490 1490 1490 1490 1490 1490 1490 1491 1491 1492 1492 1492 1493 1494 1495 1496 1497 1499 1500 1502 1504 1505 1507 1508 1509 1511 1512 1514 1516
1510 1515 1523 1523 1527 1521 1512 1513 1507 1499 1498 1497 1497 1496 1496 1495 1493 1492 1490 1488 1487 1487 1486 1486 1486 1486 1486 1486 1487 1487 1487 1488 1488 1489 1490 1490 1491 1493 1494 1496 1498 1500 1501 1503 1505 1506 1508 1509 1511
1512 1515 1524 1525 1525 1520 1514 1512 1504 1498 1496 1495 1496 1495 1494 1493 1491 1489 1487 1486 1485 1484 1483 1482 1482 1482 1482 1482 1482 1483 1483 1483 1483 1484 1485 1485 1486 1487 1489 1491 1493 1495 1497 1498 1500 1502 1503 1505 1506
1512 1516 1517 1525 1526 1527 1518 1510 1502 1497 1496 1495 1494 1493 1492 1490 1488 1486 1484 1483 1481 1480 1479 1479 1478 1478 1478 1478 1478 1477 1478 1478 1478 1479 1479 1480 1480 1482 1483 1486 1488 1490 1492 1494 1496 1497 1498 1500 1501
1511 1513 1520 1524 1526 1524 1518 1512 1504 1498 1496 1494 1493 1491 1490 1488 1486 1484 1482 1480 1479 1477 1476 1475 1475 1474 1474 1474 1473 1473 1473 1473 1474 1473 1474 1474 1475 1476 1478 1480 1482 1484 1487 1489 1490 1492 1493 1495 1497
1514 1516 1519 1524 1525 1527 1520 1508 1494 1494 1493 1492 1491 1490 1488 1486 1484 1482 1480 1477 1475 1474 1473 1472 1471 1470 1469 1468 1468 1468 1468 1468 1469 1468 1468 1469 1469 1471 1472 1474 1476 1478 1481 1483 1485 1486 1488 1490 1491
1512 1515 1518 1522 1524 1526 1524 1509 1491 1491 1490 1490 1490 1488 1487 1485 1482 1480 1477 1474 1472 1471 1469 1468 1467 1465 1464 1464 1463 1463 1463 1463 1463 1463 1463 1464 1464 1466 1467 1469 1471 1473 1475 1477 1479 1481 1482 1484 1486